Cloud_Cover
99 99 100 100 100 100 100 100 100 100 100 100 100 100 100 100 100 99 98 100 100 100 100 97 99 100 100 100 100 100 100 100 100 100 100 100 100 100
100 100 99 96 97 92 100 100 100 97 88 99 100 100 100 100 100 100 61 100 100 100 100 100 100 100 100 100 100 100 100 100 100 100 100 100 100 100
100 100 100 100 100 93 100 100 100 100 100 100 100 100 100 100 100 100 100 100 100 100 100 100 100 100 100 100 100 100 100 100 100 100 100 100 100 100
98 100 100 100 100 100 100 99 100 100 100 100 100 100 100 100 100 100 100 100 100 100 100 100 100 100 100 100 100 100 100 100 100 99 98 99 100 73
26 92 100 99 100 100 100 100 100 100 100 100 100 100 100 100 100 100 100 100 100 100 100 100 100 100 100 100 100 100 100 79 90 100 100 94 94 87
41 45 71 57 100 100 100 100 100 100 100 100 100 100 100 100 100 100 100 100 100 100 100 99 100 100 100 100 100 100 100 5 5 6 6 5 5 5
87 80 86 100 100 100 100 100 100 50 89 100 100 100 100 100 100 100 100 100 100 100 100 100 100 100 100 100 100 99 5 5 5 5 5 5 5 5
100 100 100 100 100 100 100 100 100 98 77 100 100 100 100 100 100 100 100 100 100 100 100 100 100 100 100 100 100 12 5 5 21 37 53 11 5 5
100 100 100 100 100 100 100 100 100 86 100 100 100 100 100 100 100 100 98 100 100 100 100 100 100 100 100 100 5 5 5 38 86 62 18 5 5 6
100 100 100 100 100 100 100 100 100 100 100 98 98 98 100 100 100 100 100 100 100 100 100 100 100 100 100 91 30 32 5 11 77 40 7 9 35 58
100 100 100 100 100 100 100 70 69 68 100 100 100 100 100 100 100 100 100 100 100 100 100 100 100 100 100 23 43 98 100 98 73 65 15 6 5 5
100 100 100 99 94 75 46 96 100 100 100 100 100 100 100 100 100 100 100 100 100 100 100 100 100 100 100 51 42 60 72 92 77 19 33 49 76 21
34 14 5 5 49 70 100 100 100 100 100 100 100 100 100 100 100 100 100 100 100 100 100 100 100 100 75 99 78 58 58 61 57 98 100 89 59 13
5 5 7 40 70 99 99 100 100 100 100 100 100 100 100 100 100 100 100 100 100 100 100 100 100 100 100 100 84 55 87 97 100 99 100 86 5 21
34 31 66 67 90 100 87 98 100 100 100 100 100 100 100 100 100 100 100 100 100 100 100 100 100 100 100 100 70 86 100 100 100 100 100 31 10 36
100 69 63 90 85 95 100 100 100 100 100 100 100 100 100 100 100 100 100 100 100 100 100 100 100 100 100 100 100 100 100 100 100 100 83 43 38 6
92 79 64 76 75 96 94 100 100 100 100 100 100 100 100 100 100 100 100 100 100 100 100 100 100 100 100 100 100 100 100 100 100 95 52 76 66 36
73 53 90 85 90 100 100 100 100 100 99 100 100 100 100 100 100 100 100 100 100 100 100 100 100 100 100 100 100 100 100 100 90 100 85 100 96 36
63 88 100 100 100 100 100 100 100 100 100 100 100 100 100 100 100 100 100 100 100 100 100 100 100 100 100 100 100 100 89 74 43 96 64 66 90 8
100 99 100 100 100 100 100 100 100 100 100 100 100 100 100 100 100 100 100 100 100 100 100 100 100 100 100 100 100 55 86 61 78 99 97 40 5 5
100 100 90 100 100 100 100 100 100 100 100 100 100 100 100 100 100 100 100 100 100 100 100 100 100 100 100 100 99 84 88 100 100 92 75 71 69 7
100 100 100 99 100 100 100 100 100 100 100 100 100 100 100 100 100 100 100 100 100 100 100 100 100 100 100 100 100 99 86 100 74 99 70 21 50 71
100 100 100 100 100 100 100 100 100 100 100 100 100 100 100 100 100 100 100 100 100 100 100 100 88 100 100 100 100 100 100 80 95 88 74 98 69 73